Lid_Strength_Index
2 3 3 3 3 3 2 2 1 2 1 2 1 1 2 2 2 2 2 2 2 2
2 2 2 2 2 2 2 1 1 1 1 2 1 1 1 1 2 2 2 2 2 2
2 2 2 2 2 2 2 2 2 2 2 2 1 1 2 1 1 2 2 2 2 2
2 2 2 2 2 2 2 1 2 2 2 1 1 1 1 2 1 2 2 2 2 2
2 2 2 2 2 2 2 1 1 1 1 1 1 2 2 2 1 2 2 2 2 2
2 2 2 2 2 2 2 2 1 1 1 1 2 2 2 1 1 1 2 2 2 2
2 2 2 2 2 2 2 1 1 1 1 1 1 1 1 1 2 1 1 1 1 1
2 2 2 2 2 2 2 1 1 1 2 2 2 2 2 2 2 2 2 1 1 1
2 2 2 2 2 2 2 2 2 2 2 3 2 7 6 3 2 2 2 2 2 2
2 2 2 2 2 2 2 2 2 2 3 4 4 7 7 7 2 2 2 2 2 2
2 2 2 2 2 2 2 2 3 3 3 4 4 8 9 8 2 2 2 1 2 1
2 2 2 2 2 2 2 2 3 2 3 4 5 10 10 4 1 1 2 2 1 1
2 2 2 2 2 2 2 2 2 2 2 5 5 11 11 3 2 2 3 3 3 6
2 2 2 2 2 2 2 2 3 3 2 3 4 6 10 7 2 3 3 3 3 5